Versailles, OH

9:31 PM EDT on September 26, 2016 (GMT -0400)
Darke County

Weather History for KVES - April, 2013

Change the Weather History Date:

Friday, April 12, 2013

  Actual Average (KDAY) Record (KDAY)
Temperature  
Mean Temperature 46 °F 50 °F  
Max Temperature 55 °F 61 °F 87 °F (1930)
Min Temperature 37 °F 40 °F 19 °F (1940)
Degree Days  
Heating Degree Days 19 15  
Month to date heating degree days 202  
Since 1 July heating degree days 5241  
Cooling Degree Days 0 0  
Month to date cooling degree days 0  
Year to date cooling degree days 0  
Moisture  
Dew Point 37 °F    
Average Humidity 84    
Maximum Humidity 100    
Minimum Humidity 70    
Precipitation  
Precipitation 0.15 in 0.14 in 1.23 in (2002)
Month to date precipitation 1.57  
Year to date precipitation 9.86  
Snow  
Snow 0.00 in 0.00 in 1.60 in (1973)
Month to date snowfall 0.4  
Since 1 July snowfall 23.1  
Snow Depth -    
Sea Level Pressure  
Sea Level Pressure 29.72 in    
Wind  
Wind Speed 13 mph (West)    
Max Wind Speed 21 mph    
Max Gust Speed 28 mph    
Visibility 9 miles    
Events Rain    
T = Trace of Precipitation, MM = Missing Value Source: NWS Daily Summary

Daily Weather History Graph

Daily Weather History Graph

Search for Another Location

Airport or City:

Trip Planner

Search our weather history database for the weather conditions in past years. The results will help you decide how hot, cold, wet, or windy it might be!

Date:

Astronomy

Apr. 12, 2013 Rise Set
Actual Time 7:04 AM EDT 8:14 PM EDT
Civil Twilight 6:36 AM EDT 8:42 PM EDT
Nautical Twilight 6:02 AM EDT 9:15 PM EDT
Astronomical Twilight 5:28 AM EDT 9:50 PM EDT
Moon 8:13 AM EDT (4/12) 10:44 PM EDT (4/12)
Length of Visible Light 14h 05m
Length of Day
13h 09m
Waxing Crescent, 5% of the Moon is Illuminated
Apr 12
Waxing Crescent
Apr 18
First Quarter
Apr 25
Full
May 2
Last Quarter
May 9
New

Hourly Weather History & Observations

Time (EDT) Temp. Windchill Dew Point Humidity Pressure Visibility Wind Dir Wind Speed Gust Speed Precip Events Conditions
12:15 AM 55.4 °F - 55.4 °F 100% 29.53 in 7.0 mi SSE 6.9 mph - N/A   Overcast
12:35 AM 55.4 °F - 55.4 °F 100% 29.52 in 10.0 mi SSE 8.1 mph - N/A   Overcast
12:55 AM 55.4 °F - 55.4 °F 100% 29.52 in 4.0 mi SSE 8.1 mph - N/A Rain Light Rain
1:15 AM 55.4 °F - 55.4 °F 100% 29.51 in 3.0 mi South 4.6 mph - 0.02 in   Drizzle
1:35 AM 53.6 °F - 53.6 °F 100% 29.53 in 2.5 mi West 12.7 mph - 0.08 in Rain Rain
1:55 AM 51.8 °F - 51.8 °F 100% 29.52 in 2.5 mi NW 17.3 mph 23.0 mph 0.10 in Rain Light Rain
2:15 AM 51.8 °F - 51.8 °F 100% 29.53 in 4.0 mi WNW 16.1 mph 20.7 mph 0.01 in   Drizzle
2:35 AM 50.0 °F - 50.0 °F 100% 29.54 in 2.5 mi WNW 17.3 mph 23.0 mph 0.02 in   Drizzle
2:55 AM 50.0 °F - 50.0 °F 100% 29.55 in 3.0 mi WNW 11.5 mph 20.7 mph 0.03 in Rain Rain
3:15 AM 48.2 °F - 48.2 °F 100% 29.55 in 5.0 mi WNW 13.8 mph 23.0 mph 0.02 in Rain Light Rain
3:55 AM 46.4 °F 39.2 °F 44.6 °F 93% 29.54 in 7.0 mi WNW 18.4 mph 27.6 mph 0.02 in Rain Light Rain
4:15 AM 44.6 °F 36.9 °F 42.8 °F 93% 29.55 in 10.0 mi WNW 18.4 mph 25.3 mph N/A   Overcast
4:35 AM 44.6 °F 37.2 °F 42.8 °F 93% 29.56 in 10.0 mi WNW 17.3 mph 24.2 mph N/A Rain Light Rain
4:55 AM 42.8 °F 35.8 °F 42.8 °F 100% 29.57 in 7.0 mi WNW 13.8 mph 23.0 mph N/A Rain Light Rain
5:15 AM 42.8 °F 34.5 °F 42.8 °F 100% 29.58 in 7.0 mi West 18.4 mph - N/A   Overcast
5:35 AM 42.8 °F 35.8 °F 41.0 °F 93% 29.59 in 7.0 mi West 13.8 mph 23.0 mph N/A   Overcast
5:55 AM 42.8 °F 34.0 °F 41.0 °F 93% 29.60 in 10.0 mi West 20.7 mph - N/A   Overcast
6:15 AM 41.0 °F 32.2 °F 39.2 °F 93% 29.61 in 3.0 mi West 18.4 mph 25.3 mph N/A   Overcast
6:35 AM 39.2 °F 29.8 °F 37.4 °F 93% 29.62 in 2.5 mi West 18.4 mph 24.2 mph N/A   Overcast
6:55 AM 37.4 °F 27.8 °F 37.4 °F 100% 29.63 in 7.0 mi West 17.3 mph 25.3 mph N/A   Overcast
7:15 AM 37.4 °F 28.2 °F 35.6 °F 93% 29.65 in 10.0 mi West 16.1 mph 21.9 mph N/A   Overcast
7:35 AM 39.2 °F 30.2 °F 35.6 °F 87% 29.65 in 10.0 mi West 17.3 mph 21.9 mph N/A   Overcast
7:55 AM 37.4 °F 28.9 °F 33.8 °F 87% 29.66 in 10.0 mi West 13.8 mph - N/A   Overcast
8:15 AM 37.4 °F 29.3 °F 33.8 °F 87% 29.67 in 10.0 mi WSW 12.7 mph 18.4 mph N/A   Overcast
8:35 AM 37.4 °F 27.8 °F 33.8 °F 87% 29.68 in 10.0 mi WSW 17.3 mph - N/A   Overcast
8:55 AM 37.4 °F 29.3 °F 33.8 °F 87% 29.68 in 10.0 mi West 12.7 mph - N/A   Overcast
9:15 AM 37.4 °F 27.8 °F 33.8 °F 87% 29.69 in 10.0 mi WSW 17.3 mph 21.9 mph N/A   Overcast
9:35 AM 37.4 °F 29.3 °F 33.8 °F 87% 29.69 in 10.0 mi WSW 12.7 mph 23.0 mph N/A   Overcast
9:55 AM 37.4 °F 27.2 °F 33.8 °F 87% 29.70 in 10.0 mi WSW 19.6 mph 25.3 mph N/A   Overcast
10:15 AM 37.4 °F 27.2 °F 32.0 °F 81% 29.70 in 10.0 mi WSW 19.6 mph - N/A   Overcast
10:55 AM 37.4 °F 27.5 °F 32.0 °F 81% 29.72 in 10.0 mi West 18.4 mph 25.3 mph N/A   Overcast
11:15 AM 37.4 °F 28.2 °F 32.0 °F 81% 29.72 in 10.0 mi West 16.1 mph 26.5 mph N/A   Overcast
11:35 AM 37.4 °F 27.8 °F 32.0 °F 81% 29.73 in 10.0 mi West 17.3 mph 23.0 mph N/A   Overcast
11:55 AM 37.4 °F 27.8 °F 32.0 °F 81% 29.73 in 10.0 mi WSW 17.3 mph 20.7 mph N/A   Overcast
12:15 PM 39.2 °F 31.2 °F 32.0 °F 75% 29.73 in 10.0 mi West 13.8 mph 21.9 mph N/A   Overcast
12:35 PM 39.2 °F 31.2 °F 32.0 °F 75% 29.74 in 10.0 mi WSW 13.8 mph 25.3 mph N/A   Overcast
12:55 PM 41.0 °F 31.6 °F 32.0 °F 70% 29.74 in 10.0 mi WSW 20.7 mph 24.2 mph N/A   Overcast
1:15 PM 41.0 °F 31.9 °F 32.0 °F 70% 29.73 in 10.0 mi WSW 19.6 mph 24.2 mph N/A   Overcast
1:35 PM 41.0 °F 31.9 °F 32.0 °F 70% 29.74 in 10.0 mi WSW 19.6 mph 24.2 mph N/A   Overcast
1:55 PM 41.0 °F 32.2 °F 32.0 °F 70% 29.74 in 10.0 mi WSW 18.4 mph - N/A   Overcast
2:15 PM 41.0 °F 32.5 °F 32.0 °F 70% 29.75 in 10.0 mi WSW 17.3 mph - N/A   Overcast
2:35 PM 41.0 °F 33.5 °F 32.0 °F 70% 29.75 in 10.0 mi WSW 13.8 mph 23.0 mph N/A   Overcast
2:55 PM 41.0 °F 33.5 °F 32.0 °F 70% 29.76 in 10.0 mi West 13.8 mph 18.4 mph N/A   Overcast
3:15 PM 41.0 °F 34.3 °F 33.8 °F 76% 29.76 in 10.0 mi West 11.5 mph 19.6 mph N/A   Overcast
3:35 PM 41.0 °F 34.3 °F 33.8 °F 76% 29.76 in 10.0 mi West 11.5 mph 19.6 mph N/A   Overcast
3:55 PM 41.0 °F 33.1 °F 33.8 °F 76% 29.77 in 10.0 mi WSW 15.0 mph 20.7 mph N/A   Overcast
4:15 PM 41.0 °F 32.5 °F 32.0 °F 70% 29.78 in 10.0 mi West 17.3 mph 21.9 mph N/A   Overcast
4:35 PM 41.0 °F 34.7 °F 33.8 °F 76% 29.78 in 10.0 mi West 10.4 mph - N/A   Overcast
4:55 PM 41.0 °F 32.8 °F 33.8 °F 76% 29.79 in 10.0 mi West 16.1 mph 23.0 mph N/A   Overcast
5:15 PM 41.0 °F 33.1 °F 32.0 °F 70% 29.80 in 10.0 mi West 15.0 mph 24.2 mph N/A   Overcast
5:35 PM 41.0 °F 33.1 °F 32.0 °F 70% 29.81 in 10.0 mi West 15.0 mph 21.9 mph N/A   Overcast
5:55 PM 41.0 °F 32.8 °F 32.0 °F 70% 29.81 in 10.0 mi West 16.1 mph 24.2 mph N/A   Overcast
6:15 PM 41.0 °F 34.3 °F 32.0 °F 70% 29.82 in 10.0 mi West 11.5 mph 19.6 mph N/A   Overcast
6:35 PM 41.0 °F 33.9 °F 33.8 °F 76% 29.83 in 10.0 mi West 12.7 mph 18.4 mph N/A   Overcast
6:55 PM 41.0 °F 35.2 °F 33.8 °F 76% 29.83 in 10.0 mi WSW 9.2 mph - N/A   Overcast
7:15 PM 41.0 °F 33.1 °F 32.0 °F 70% 29.84 in 10.0 mi West 15.0 mph 20.7 mph N/A   Overcast
7:35 PM 41.0 °F 34.3 °F 32.0 °F 70% 29.85 in 10.0 mi WSW 11.5 mph 18.4 mph N/A   Overcast
7:55 PM 41.0 °F 33.5 °F 32.0 °F 70% 29.85 in 10.0 mi WSW 13.8 mph 18.4 mph N/A   Overcast
8:15 PM 41.0 °F 34.7 °F 33.8 °F 76% 29.85 in 10.0 mi West 10.4 mph 17.3 mph N/A   Overcast
8:35 PM 41.0 °F 33.9 °F 33.8 °F 76% 29.86 in 10.0 mi West 12.7 mph 19.6 mph N/A   Overcast
8:55 PM 41.0 °F 35.8 °F 33.8 °F 76% 29.86 in 10.0 mi West 8.1 mph - N/A   Overcast
9:15 PM 41.0 °F 34.3 °F 33.8 °F 76% 29.86 in 10.0 mi West 11.5 mph 17.3 mph N/A   Overcast
9:35 PM 39.2 °F 32.0 °F 35.6 °F 87% 29.87 in 7.0 mi West 11.5 mph - N/A   Light Drizzle
9:55 PM 39.2 °F 33.6 °F 35.6 °F 87% 29.88 in 10.0 mi WSW 8.1 mph - N/A   Overcast
10:15 PM 39.2 °F 32.5 °F 35.6 °F 87% 29.88 in 10.0 mi WSW 10.4 mph - N/A   Overcast
10:35 PM 41.0 °F 32.5 °F 35.6 °F 81% 29.89 in 10.0 mi West 17.3 mph 21.9 mph N/A   Overcast
10:55 PM 39.2 °F 31.2 °F 35.6 °F 87% 29.89 in 10.0 mi West 13.8 mph 19.6 mph N/A   Overcast
11:15 PM 39.2 °F 32.0 °F 35.6 °F 87% 29.89 in 10.0 mi West 11.5 mph 21.9 mph N/A   Overcast
11:35 PM 37.4 °F 27.8 °F 35.6 °F 93% 29.90 in 7.0 mi West 17.3 mph 26.5 mph N/A   Overcast
11:55 PM 37.4 °F 28.9 °F 35.6 °F 93% 29.90 in 10.0 mi West 13.8 mph 17.3 mph N/A   Overcast